This is the latest recevied weather packets stored in our database for station/object KG4GJX. If no packets are shown the sender has not sent any weather packets the latest 10 day(s).
| Time | Temp. | Humidity | Pressure | Rain* | Wind** | Luminosity | Snow |
|---|---|---|---|---|---|---|---|
| 1777915347 | 24.44° C | 47% | 1015.2 hPa | 0 mm | - | - | - |
| 1777914685 | 24.44° C | 50% | 1015.2 hPa | 0 mm | - | - | - |
| 1777914022 | 23.89° C | 51% | 1015.5 hPa | 0 mm | - | - | - |
| 1777913360 | 23.89° C | 49% | 1015.5 hPa | 0 mm | - | - | - |
| 1777912698 | 23.89° C | 51% | 1015.9 hPa | 0 mm | - | - | - |
| 1777912035 | 23.33° C | 48% | 1015.9 hPa | 0 mm | - | - | - |
| 1777911373 | 22.78° C | 52% | 1015.9 hPa | 0 mm | - | - | - |
| 1777910711 | 22.78° C | 49% | 1016.2 hPa | 0 mm | - | - | - |
| 1777910048 | 22.78° C | 52% | 1016.2 hPa | 0 mm | - | - | - |
| 1777909386 | 22.22° C | 52% | 1016.2 hPa | 0 mm | - | - | - |
| 1777908723 | 21.67° C | 54% | 1016.5 hPa | 0 mm | - | - | - |
| 1777908061 | 21.11° C | 54% | 1016.5 hPa | 0 mm | - | - | - |
| 1777907398 | 20.56° C | 56% | 1016.5 hPa | 0 mm | - | - | - |
| 1777906735 | 20.56° C | 58% | 1016.9 hPa | 0 mm | - | - | - |
| 1777906073 | 20° C | 57% | 1016.9 hPa | 0 mm | - | - | - |
| 1777905410 | 19.44° C | 58% | 1016.9 hPa | 0 mm | - | - | - |
| 1777904748 | 18.89° C | 60% | 1016.9 hPa | 0 mm | - | - | - |
| 1777904086 | 17.78° C | 63% | 1016.9 hPa | 0 mm | - | - | - |
| 1777903423 | 17.22° C | 62% | 1017.2 hPa | 0 mm | - | - | - |
| 1777902761 | 16.67° C | 67% | 1016.9 hPa | 0 mm | - | - | - |
| 1777902098 | 16.11° C | 70% | 1016.9 hPa | 0 mm | - | - | - |
| 1777901436 | 15° C | 73% | 1017.2 hPa | 0 mm | - | - | - |
| 1777900773 | 14.44° C | 77% | 1017.2 hPa | 0 mm | - | - | - |
| 1777900111 | 13.33° C | 83% | 1017.2 hPa | 0 mm | - | - | - |
| 1777899449 | 12.22° C | 95% | 1017.2 hPa | 0 mm | - | - | - |
* Rain latest hour (hover to see other rain measurements)
** Current wind speed in m/s (hover to see current wind gust speed)